Location: Coopersdale
(40.3556°N, 78.9372°W)
Time: 09:40:21
(UTC+00:00)

Envisat - Pass Details

Date: 27 November 2020
Orbit: 764 x 766 km, 98.1° (Epoch: 15 January)

Event Time Altitude Azimuth Distance (km) Brightness Sun altitude
Rises 11:08:34 0° 13° (NNE) 3,241 6.2 -12.7°
Reaches altitude 10° 11:10:53 10° 14° (NNE) 2,311 5.5 -12.2°
Maximum altitude 11:15:59 83° 103° (ESE) 776 3.1 -11.3°
Drops below altitude 10° 11:21:03 10° 191° (SSW) 2,293 5.6 -10.4°
Sets 11:23:20 0° 192° (SSW) 3,215 6.3 -10.0°
